This demonstration page uses our WeatherBlox Daily Observations layout. Learn more.

Left ArrowRight Arrow

Hourly Observations for November 16, 2015

Temp ( °F °C ) Dew Point ( °F °C ) Humidity (%) Winds ( mph kmh ) Pressure ( in mb ) Visibility ( mi km ) Precip ( " mm )
12:53 am 00:53 Cloudy with Light Rain 52 11.1 49 9.4 89 89 S 15 24 29.70 1006 6 10 0.06 1.52
1:48 am 01:48 Cloudy with Light Rain 52 11 48 9 88 88 S 16 26 29.71 1006 5 8 0.00 0.00
1:53 am 01:53 Cloudy with Light Rain 51 10.6 49 9.4 92 92 S 15 24 29.69 1005 5 8 0.06 1.52
2:53 am 02:53 Cloudy with Mist and Fog 51 10.6 49 9.4 92 92 S 14 22 29.67 1005 3 5 0.03 0.76
3:07 am 03:07 Cloudy with Mist and Fog 51 10.6 49 9.4 92 92 S 16 26 29.71 1006 3 4 0.00 0.00
3:51 am 03:51 Cloudy with Mist and Fog 52 11 48 9 88 88 S 15 24 29.65 1004 4 6 0.00 0.00
3:53 am 03:53 Cloudy with Mist and Fog 51 10.6 49 9.4 92 92 S 14 22 29.65 1004 4 6 0.00 0.00
4:53 am 04:53 Cloudy with Mist and Fog 51 10.6 49 9.4 92 92 S 14 22 29.65 1004 5 8 0.00 0.00
5:25 am 05:25 Cloudy with Mist and Fog 51 10.6 50 10 96 96 S 14 22 29.65 1004 2 3 0.00 0.00
5:40 am 05:40 Cloudy with Mist and Fog 52 11 50 10 94 94 S 16 26 29.65 1004 2 3 0.00 0.00
5:53 am 05:53 Cloudy with Mist and Fog 51 10.6 50 10 96 96 S 17 28 29.63 1003 2 3 0.00 0.00
6:14 am 06:14 Cloudy with Mist and Fog 52 11.1 50 10 93 93 S 16 26 29.62 1003 2 3 0.00 0.00
6:48 am 06:48 Cloudy with Mist and Fog 52 11 52 11 100 100 S 15 24 29.62 1003 3 5 0.00 0.00
6:53 am 06:53 Cloudy with Mist and Fog 52 11.1 51 10.6 97 97 S 14 22 29.62 1003 3 5 0.00 0.00
7:41 am 07:41 Cloudy with Mist and Fog 52 11.1 51 10.6 97 97 S 13 20 29.62 1003 3 4 0.00 0.00
7:53 am 07:53 Cloudy with Mist and Fog 52 11.1 51 10.6 97 97 SSE 17 28 29.60 1003 1 2 0.00 0.00
8:40 am 08:40 Cloudy with Mist and Fog 54 12 52 11 94 94 SSE 15 24 29.62 1003 2 3 0.00 0.00
8:53 am 08:53 Cloudy with Mist and Fog 53 11.7 52 11.1 96 96 S 15 24 29.61 1003 3 4 0.00 0.00
9:01 am 09:01 Cloudy with Mist and Fog 53 11.7 52 11.1 96 96 SSE 14 22 29.62 1003 3 5 0.00 0.00
9:53 am 09:53 Cloudy 54 12.2 53 11.7 97 97 S 16 26 29.60 1003 7 11 0.00 0.00
10:18 am 10:18 Cloudy 55 13 54 12 94 94 S 15 24 29.62 1003 8 13 0.00 0.00
10:53 am 10:53 Cloudy 56 13.3 54 12.2 93 93 S 15 24 29.59 1002 10 16 0.00 0.00
11:33 am 11:33 Cloudy 58 14.4 55 12.8 90 90 SSE 15 24 29.59 1002 10 16 0.00 0.00
11:53 am 11:53 Cloudy 60 15.6 56 13.3 86 86 S 12 19 29.55 1001 10 16 0.00 0.00
12:44 pm 12:44 Partly Cloudy 63 17 55 13 77 77 S 17 28 29.50 999 10 16 0.00 0.00
12:53 pm 12:53 Mostly Sunny 63 17.2 56 13.3 78 78 S 17 28 29.51 999 10 16 0.00 0.00
1:35 pm 13:35 Mostly Cloudy 63 17.2 56 13.3 78 78 SE 16 26 29.50 999 10 16 0.00 0.00
1:53 pm 13:53 Cloudy 65 18.3 56 13.3 73 73 SSE 18 30 29.50 999 10 16 0.00 0.00
2:13 pm 14:13 Mostly Cloudy 64 17.8 56 13.3 75 75 SSE 17 28 29.47 998 10 16 0.00 0.00
2:39 pm 14:39 Mostly Cloudy 64 18 55 13 73 73 SSE 16 26 29.44 997 10 16 0.00 0.00
2:51 pm 14:51 Partly Cloudy 64 18 55 13 73 73 SSE 21 33 29.44 997 10 16 0.00 0.00
2:53 pm 14:53 Partly Cloudy 64 17.8 55 12.8 73 73 SSE 20 31 29.48 998 10 16 0.00 0.00
3:09 pm 15:09 Mostly Cloudy 62 16.7 55 12.8 78 78 SSE 21 33 29.47 998 10 16 0.00 0.00
3:53 pm 15:53 Mostly Cloudy 61 16.1 55 12.8 81 81 SSE 17 28 29.48 998 10 16 0.00 0.00
4:28 pm 16:28 Cloudy 61 16 55 13 83 83 SE 16 26 29.47 998 10 16 0.00 0.00
4:53 pm 16:53 Cloudy 60 15.6 56 13.3 86 86 SE 16 26 29.48 998 10 16 0.00 0.00
5:42 pm 17:42 Cloudy 59 15 55 13 88 88 SE 15 24 29.47 998 10 16 0.00 0.00
5:53 pm 17:53 Cloudy 59 15 56 13.3 90 90 SE 17 28 29.48 998 10 16 0.00 0.00
6:19 pm 18:19 Cloudy 59 15 55 13 88 88 SE 16 26 29.47 998 9 14 0.00 0.00
6:53 pm 18:53 Cloudy 60 15.6 57 13.9 90 90 SE 18 30 29.46 998 10 16 0.00 0.00
7:01 pm 19:01 Cloudy 60 15.6 57 13.9 90 90 SE 17 28 29.44 997 10 16 0.00 0.00
7:53 pm 19:53 Cloudy 61 16.1 57 13.9 87 87 SSE 17 28 29.47 998 10 16 0.00 0.00
8:53 pm 20:53 Cloudy 58 14.4 57 13.9 97 97 SSE 15 24 29.46 998 7 11 0.00 0.00
9:03 pm 21:03 Cloudy 57 14 55 13 94 94 SSE 18 30 29.44 997 9 14 0.00 0.00
9:53 pm 21:53 Cloudy with Mist and Fog 58 14.4 56 13.3 93 93 S 17 28 29.49 999 5 8 0.00 0.03
10:04 pm 22:04 Cloudy with Light Rain 57 14 57 14 100 100 S 15 24 29.47 998 5 8 0.00 0.00
10:47 pm 22:47 Cloudy with Nearby Thunderstorms 54 12 50 10 88 88 WNW 22 35 29.56 1001 2 3 0.10 2.54
10:53 pm 22:53 Cloudy with Nearby Thunderstorms 52 11.1 49 9.4 89 89 WNW 14 22 29.52 1000 2 3 0.12 3.05
10:55 pm 22:55 Cloudy with Nearby Thunderstorms 52 11 48 9 88 88 WNW 13 20 29.53 1000 3 5 0.00 0.00
11:27 pm 23:27 Cloudy with Thunderstorms 53 11.7 50 10 89 89 Calm 29.56 1001 4 6 0.05 1.27
11:53 pm 23:53 Cloudy with Thunderstorms 53 11.7 50 10 89 89 NW 8 13 29.52 1000 8 13 0.08 2.03

Powered by AerisWeather